Grafton, ND

12:04 AM CST on February 21, 2018 (GMT -0600)
Grafton Municipal

Weather History for KGAF - February, 2014

Change the Weather History Date:

Friday, February 28, 2014

  Actual Average Record
Temperature  
Mean Temperature -6 °F -  
Max Temperature 1 °F 28 °F 46 °F (1990)
Min Temperature -13 °F 9 °F -35 °F (1962)
Degree Days  
Heating Degree Days 71    
Moisture  
Dew Point -12 °F    
Average Humidity 71    
Maximum Humidity 84    
Minimum Humidity 64    
Precipitation  
Precipitation 0.00 in - - ()
Sea Level Pressure  
Sea Level Pressure 29.99 in    
Wind  
Wind Speed 14 mph (NW)    
Max Wind Speed 29 mph    
Max Gust Speed 36 mph    
Visibility 8 miles    
Events Rain , Snow    
Averages and records for this station are not official NWS values.
T = Trace of Precipitation, MM = Missing Value Source: NWS Daily Summary

Daily Weather History Graph

Daily Weather History Graph

Search for Another Location

Airport or City:

Trip Planner

Search our weather history database for the weather conditions in past years. The results will help you decide how hot, cold, wet, or windy it might be!

Date:

Astronomy

Feb. 28, 2014 Rise Set
Actual Time 7:12 AM CST 6:12 PM CST
Civil Twilight 6:41 AM CST 6:43 PM CST
Nautical Twilight 6:05 AM CST 7:19 PM CST
Astronomical Twilight 5:28 AM CST 7:56 PM CST
Moon 6:29 AM CST (2/28) 5:51 PM CST (2/28)
Length of Visible Light 12h 02m
Length of Day
10h 59m
Waning Crescent, 1% of the Moon is Illuminated
Feb 28
Waning Crescent
Mar 1
New
Mar 8
First Quarter
Mar 16
Full
Mar 23
Last Quarter

Hourly Weather History & Observations

Time (CST) Temp. Windchill Dew Point Humidity Pressure Visibility Wind Dir Wind Speed Gust Speed Precip Events Conditions
12:15 AM -9.4 °F -30.6 °F -18.4 °F 65% 29.86 in 10.0 mi SSE 13.8 mph - N/A   Clear
12:35 AM -11.2 °F -31.1 °F -18.4 °F 70% 29.85 in 10.0 mi SSE 11.5 mph - N/A   Partly Cloudy
12:55 AM -11.2 °F -31.1 °F -18.4 °F 70% 29.84 in 10.0 mi SSE 11.5 mph - N/A   Mostly Cloudy
1:15 AM -9.4 °F -29.8 °F -18.4 °F 65% 29.83 in 10.0 mi SSE 12.7 mph - N/A   Overcast
1:35 AM -9.4 °F -28.9 °F -16.6 °F 71% 29.82 in 10.0 mi SSE 11.5 mph - N/A   Overcast
1:55 AM -9.4 °F -28.9 °F -16.6 °F 71% 29.81 in 10.0 mi SSE 11.5 mph - N/A   Overcast
2:15 AM -7.6 °F -26.6 °F -14.8 °F 71% 29.81 in 10.0 mi SSE 11.5 mph - N/A   Overcast
2:35 AM -7.6 °F -24.6 °F -13.0 °F 77% 29.80 in 10.0 mi SE 9.2 mph - N/A   Overcast
2:55 AM -5.8 °F -24.4 °F -13.0 °F 71% 29.79 in 10.0 mi SSE 11.5 mph - N/A   Mostly Cloudy
3:15 AM -4.0 °F -23.0 °F -11.2 °F 71% 29.78 in 10.0 mi SSE 12.7 mph - N/A   Mostly Cloudy
3:35 AM -4.0 °F -25.8 °F -11.2 °F 71% 29.76 in 10.0 mi SSE 17.3 mph - N/A   Mostly Cloudy
3:55 AM -2.2 °F -22.9 °F -9.4 °F 71% 29.77 in 10.0 mi SSE 16.1 mph - N/A   Overcast
4:15 AM -2.2 °F -22.2 °F -9.4 °F 71% 29.78 in 10.0 mi SSE 15.0 mph - N/A   Scattered Clouds
4:35 AM -2.2 °F -23.5 °F -9.4 °F 71% 29.76 in 10.0 mi SSE 17.3 mph - N/A   Mostly Cloudy
4:55 AM -2.2 °F -23.5 °F -9.4 °F 71% 29.75 in 10.0 mi SSE 17.3 mph - N/A   Overcast
5:15 AM -2.2 °F -22.9 °F -9.4 °F 71% 29.75 in 8.0 mi SSE 16.1 mph - N/A   Mostly Cloudy
5:35 AM -2.2 °F -22.2 °F -9.4 °F 71% 29.74 in 10.0 mi SSE 15.0 mph - N/A   Scattered Clouds
5:55 AM -2.2 °F -22.2 °F -9.4 °F 71% 29.74 in 10.0 mi SSE 15.0 mph - N/A   Scattered Clouds
6:15 AM -4.0 °F -22.1 °F -9.4 °F 78% 29.74 in 10.0 mi South 11.5 mph - N/A   Scattered Clouds
6:35 AM -4.0 °F -21.2 °F -9.4 °F 78% 29.75 in 10.0 mi SSE 10.4 mph - N/A   Scattered Clouds
6:55 AM -4.0 °F -20.2 °F -11.2 °F 71% 29.76 in 10.0 mi South 9.2 mph - N/A   Clear
7:15 AM -7.6 °F -23.4 °F -11.2 °F 84% 29.76 in 10.0 mi South 8.1 mph - N/A   Clear
7:35 AM -5.8 °F -19.9 °F -11.2 °F 77% 29.77 in 9.0 mi South 6.9 mph - N/A   Mostly Cloudy
7:55 AM -4.0 °F -16.3 °F -11.2 °F 71% 29.77 in 10.0 mi South 5.8 mph - N/A   Overcast
8:15 AM -2.2 °F -14.2 °F -9.4 °F 71% 29.78 in 9.0 mi South 5.8 mph - N/A   Overcast
8:35 AM -2.2 °F -14.2 °F -7.6 °F 78% 29.79 in 8.0 mi South 5.8 mph - N/A   Overcast
8:55 AM -2.2 °F -15.6 °F -7.6 °F 78% 29.79 in 8.0 mi South 6.9 mph - N/A   Overcast
9:15 AM -0.4 °F -12.0 °F -7.6 °F 72% 29.80 in 3.0 mi South 5.8 mph - N/A Snow Light Snow
9:35 AM -0.4 °F -10.4 °F -7.6 °F 72% 29.81 in 4.0 mi SSW 4.6 mph - N/A Snow Light Snow
9:55 AM -0.4 °F -12.0 °F -5.8 °F 78% 29.82 in 3.0 mi WSW 5.8 mph - N/A Snow Light Snow
10:15 AM -0.4 °F -14.7 °F -5.8 °F 78% 29.83 in 5.0 mi West 8.1 mph - N/A   Haze
10:35 AM 1.4 °F -16.1 °F -4.0 °F 78% 29.84 in 8.0 mi NW 12.7 mph - N/A   Overcast
10:55 AM -0.4 °F -18.4 °F -5.8 °F 78% 29.86 in 7.0 mi NNW 12.7 mph - N/A Snow Light Snow
11:15 AM 1.4 °F -19.9 °F -4.0 °F 78% 29.88 in 5.0 mi NNW 19.6 mph 25.3 mph N/A Rain Light Freezing Rain
11:35 AM -0.4 °F -23.8 °F -5.8 °F 78% 29.89 in 1.2 mi NNW 23.0 mph 31.1 mph N/A Rain Light Freezing Rain
11:55 AM -0.4 °F -24.7 °F -7.6 °F 72% 29.92 in 1.8 mi NNW 25.3 mph 32.2 mph N/A Rain Light Freezing Rain
12:15 PM -0.4 °F -25.2 °F -7.6 °F 72% 29.94 in 1.5 mi NNW 26.5 mph 35.7 mph N/A Rain Light Freezing Rain
12:35 PM -0.4 °F -24.7 °F -7.6 °F 72% 29.96 in 4.0 mi NNW 25.3 mph 32.2 mph N/A   Haze
12:55 PM -0.4 °F -26.0 °F -9.4 °F 66% 29.98 in 5.0 mi NNW 28.8 mph 35.7 mph N/A   Haze
1:15 PM -0.4 °F -24.7 °F -7.6 °F 72% 29.99 in 5.0 mi North 25.3 mph 34.5 mph N/A   Haze
1:35 PM -0.4 °F -25.2 °F -7.6 °F 72% 30.00 in 4.0 mi North 26.5 mph 32.2 mph N/A   Haze
1:55 PM -0.4 °F -24.3 °F -7.6 °F 72% 30.01 in 1.8 mi NNW 24.2 mph 29.9 mph N/A Rain Light Freezing Rain
2:15 PM -0.4 °F -25.6 °F -7.6 °F 72% 30.03 in 2.5 mi NNW 27.6 mph 32.2 mph N/A   Haze
2:35 PM -0.4 °F -23.3 °F -7.6 °F 72% 30.05 in 0.5 mi NNW 21.9 mph 32.2 mph N/A Rain Light Freezing Rain
2:55 PM -0.4 °F -25.6 °F -7.6 °F 72% 30.05 in 1.0 mi North 27.6 mph 34.5 mph N/A Rain Light Freezing Rain
3:15 PM -0.4 °F -24.7 °F -9.4 °F 66% 30.07 in 4.0 mi North 25.3 mph 32.2 mph N/A   Haze
3:35 PM -0.4 °F -24.3 °F -9.4 °F 66% 30.09 in 5.0 mi NNW 24.2 mph 34.5 mph N/A   Haze
3:55 PM -0.4 °F -25.2 °F -9.4 °F 66% 30.10 in 5.0 mi North 26.5 mph 34.5 mph N/A   Haze
4:15 PM -2.2 °F -27.1 °F -9.4 °F 71% 30.10 in 5.0 mi North 25.3 mph 32.2 mph N/A   Haze
4:35 PM -2.2 °F -25.7 °F -9.4 °F 71% 30.12 in 9.0 mi NNW 21.9 mph 27.6 mph N/A   Clear
4:55 PM -2.2 °F -27.6 °F -11.2 °F 66% 30.14 in 9.0 mi NNW 26.5 mph 34.5 mph N/A   Clear
5:15 PM -2.2 °F -26.2 °F -11.2 °F 66% 30.15 in 10.0 mi NNW 23.0 mph 31.1 mph N/A   Clear
5:35 PM -4.0 °F -27.0 °F -13.0 °F 65% 30.17 in 10.0 mi NNW 19.6 mph 28.8 mph N/A   Clear
5:55 PM -4.0 °F -27.0 °F -13.0 °F 65% 30.19 in 10.0 mi NNW 19.6 mph 27.6 mph N/A   Clear
6:15 PM -4.0 °F -27.6 °F -13.0 °F 65% 30.20 in 10.0 mi NNW 20.7 mph 26.5 mph N/A   Clear
6:35 PM -4.0 °F -27.6 °F -13.0 °F 65% 30.22 in 10.0 mi NNW 20.7 mph 27.6 mph N/A   Clear
6:55 PM -5.8 °F -26.8 °F -14.8 °F 65% 30.23 in 10.0 mi NNW 15.0 mph 24.2 mph N/A   Clear
7:15 PM -7.6 °F -29.8 °F -14.8 °F 71% 30.24 in 10.0 mi NNW 16.1 mph - N/A   Clear
7:35 PM -7.6 °F -31.1 °F -16.6 °F 65% 30.24 in 10.0 mi NNW 18.4 mph - N/A   Clear
7:55 PM -7.6 °F -29.8 °F -16.6 °F 65% 30.25 in 10.0 mi NNW 16.1 mph - N/A   Clear
8:15 PM -7.6 °F -27.5 °F -16.6 °F 65% 30.26 in 10.0 mi NNW 12.7 mph 19.6 mph N/A   Clear
8:35 PM -7.6 °F -26.6 °F -16.6 °F 65% 30.27 in 10.0 mi NNW 11.5 mph - N/A   Clear
8:55 PM -9.4 °F -28.9 °F -16.6 °F 71% 30.28 in 10.0 mi NNW 11.5 mph - N/A   Clear
9:15 PM -11.2 °F -30.1 °F -18.4 °F 70% 30.30 in 10.0 mi NNW 10.4 mph - N/A   Clear
9:35 PM -11.2 °F -30.1 °F -18.4 °F 70% 30.31 in 10.0 mi NNW 10.4 mph - N/A   Clear
9:55 PM -11.2 °F -31.1 °F -18.4 °F 70% 30.32 in 10.0 mi NW 11.5 mph - N/A   Clear
10:15 PM -11.2 °F -31.1 °F -18.4 °F 70% 30.33 in 10.0 mi NNW 11.5 mph - N/A   Clear
10:35 PM -11.2 °F -32.1 °F -20.2 °F 64% 30.34 in 10.0 mi NNW 12.7 mph - N/A   Clear
10:55 PM -11.2 °F -31.1 °F -20.2 °F 64% 30.34 in 10.0 mi NNW 11.5 mph 18.4 mph N/A   Clear
11:15 PM -11.2 °F -31.1 °F -20.2 °F 64% 30.35 in 10.0 mi NW 11.5 mph - N/A   Clear
11:35 PM -13.0 °F -33.4 °F -20.2 °F 70% 30.37 in 10.0 mi NW 11.5 mph - N/A   Clear
11:55 PM -13.0 °F -31.3 °F -22.0 °F 64% 30.38 in 10.0 mi NNW 9.2 mph - N/A   Clear